Torna al catalogo

SL-16 DEB

AttivoLEO
NORAD 22425·DEBRIS·🇷🇺 Russia

Lanciato Dec 25, 1992 da Baikonur Cosmodrome

Loading…

Prossimi Passaggi (prossime 24 ore)

TLE

AggiornatoSource: Space-Track

Epoca: Sep 14, 2026, 09:14 UTC

1 22425U 92093DS  26257.38483648  .00000208  00000-0  17690-3 0  9990
2 22425  71.1784  31.9278 0109731 102.1163 290.5558 13.95182567710908

Traccia SL-16 DEB in tempo reale con AllMySat

Download on the App Store